Home > Weather > Behbahan > Past weeks

Flag for Iran Weather for the Past 2 Weeks in Behbahan, Iran

Now
70 °F

Clear.


Feels Like: 70 °F
Forecast: 68 / 101 °F
Wind: No wind

Location: Gach Saran Du Gunbadan

Current Time: May 3, 2016 at 4:53:55 AM

Latest Report: May 3, 2016 at 3:30 AM


Visibility: 10 mi

Pressure: 29.86 "Hg

Humidity: 31%

Dew Point: 37 °F

Location of BehbahanLocation

Historic Weather in Behbahan — Graph

°F

Behbahan Temperature Yesterday

Maximum temperature yesterday: 91 °F (at 2:30 PM)
Minimum temperature yesterday: 61 °F (at 5:30 AM)
Average temperature yesterday: 79 °F

High & Low Weather Summary for the Past Weeks

 TemperatureHumidityPressure
High100 °F (Apr 27, 3:30 PM)83% (Apr 30, 11:30 PM)30.24 "Hg (Apr 30, 11:30 PM)
Low52 °F (Apr 18, 6:30 AM)6% (May 1, 1:30 AM)29.77 "Hg (Apr 24, 3:30 PM)
Average77 °F28%29.94 "Hg
* Reported Apr 18 3:30 AM — May 3 3:30 AM, Behbahan, Weather by CustomWeather, © 2016

Note: Actual official high and low records may vary slightly from our data, if they occured in-between our weather recording intervals... More about our weather records

Advertising

Behbahan Weather History for the Previous 24 Hours

Scroll right to see more
 ConditionsComfort  
Time TempWeatherWind HumidityBarometerVisibility
3:30 AM
Tue, May 3
70 °FClear.No wind31%29.86 "Hg10 mi
2:30 AM72 °FClear.No wind29%29.86 "Hg10 mi
1:30 AM73 °FClear.No wind27%29.86 "Hg10 mi
12:30 AM77 °FClear.No wind24%29.89 "Hg10 mi
11:30 PM
Mon, May 2
75 °FClear.No wind25%29.89 "Hg10 mi
10:30 PM81 °FClear.No wind21%29.89 "Hg10 mi
9:30 PM82 °FClear.No wind19%29.89 "Hg10 mi
8:30 PM86 °FSunny.No wind17%29.86 "Hg10 mi
7:30 PM88 °FSunny.22 mph13%29.86 "Hg10 mi
6:30 PM90 °FSunny.14 mph13%29.86 "Hg10 mi
5:30 PM91 °FSunny.14 mph14%29.83 "Hg10 mi
4:30 PM91 °FSunny.22 mph14%29.86 "Hg10 mi
3:30 PM91 °FPassing clouds.24 mph15%29.86 "HgN/A
2:30 PM91 °FPassing clouds.18 mph15%29.89 "HgN/A
1:30 PM90 °FPassing clouds.21 mph16%29.89 "HgN/A
12:30 PM90 °FSunny.9 mph16%29.92 "Hg10 mi
11:30 AM88 °FSunny.9 mph16%29.92 "Hg10 mi
10:30 AM84 °FSunny.No wind20%29.95 "Hg10 mi
9:30 AM82 °FSunny.No wind21%29.95 "Hg10 mi
8:30 AM75 °FSunny.No wind27%29.92 "Hg10 mi
7:30 AM66 °FClear.No wind37%29.92 "Hg10 mi
6:30 AM61 °FClear.No wind45%29.89 "Hg10 mi
5:30 AM61 °FClear.No wind42%29.89 "Hg10 mi
4:30 AM63 °FClear.No wind37%29.89 "Hg10 mi
Weather by CustomWeather, © 2016

See weather overviewHow to use our weather pages